Terminal Aerodrome Forecast
Issued by NWS

Home | Current Version | Previous Version | Graphics & Text | Print | Product List | Glossary On
Versions: 1 2 3 4 5 6 7 8 9 10 11 12 13 14 15 16 17
000
FTUS43 KBIS 290232 AAA
TAFMOT
TAF AMD
KMOT 290232Z 2903/2924 26030G45KT 5SM -SHRA SCT025 OVC035
      TEMPO 2903/2905 3SM -SHRA BKN015
     FM290500 27030G39KT P6SM VCSH BKN020 OVC035
     FM290700 27022G32KT P6SM BKN050 OVC070
     FM291200 28018G26KT P6SM SCT120 SCT170
     FM291500 28024G35KT P6SM SKC=

USA.gov is the U.S. government's official web portal to all federal, state and local government web resources and services.